Tracking 25711 objects as of 22-May-2022
HD Live streaming from Space Station
objects crossing your sky now

INTELSAT 2-F2 DEB *

Track INTELSAT 2-F2 DEB * now!


NORAD ID: 5987
Int'l Code: 1967-001S
Perigee: 495.4 km
Apogee: 28,613.7 km
Inclination: 26.4 °
Period: 502.1 minutes
Semi major axis: 20925 km
RCS: 0.3047 m2 (medium)
Launch date: January 11, 1967
Source: United States (US)
Launch site: AIR FORCE EASTERN TEST RANGE (AFETR)

Note: This is SATELLITE DEBRIS
aabbcc
Your satellite tracking list
Your tracking list is empty




NASA's NSSDC Master Catalog

Two Line Element Set (TLE):
1 05987U 67001S   22141.38233074  .00000095  00000-0  50970-3 0  9991
2 05987  26.4183 120.2451 6718634 204.1839  98.2695  2.86805273335889
Source of the keplerian elements: AFSPC